Time,TemperatureF,DewpointF,PressureIn,WindDirection,WindDirectionDegrees,WindSpeedMPH,WindSpeedGustMPH,Humidity,HourlyPrecipIn,Conditions,Clouds,dailyrainin,SolarRadiationWatts/m^2,SoftwareType,DateUTC
2013-03-20 00:12:00,44.0,33.0,-100.00,ENE,67,1.0,4.0,65,-99.99,,,0.00,0.000000,,2013-03-20 07:12:00,
2013-03-20 01:12:00,43.0,35.0,-100.00,East,81,7.0,11.0,74,-99.99,,,0.00,0.000000,,2013-03-20 08:12:00,
2013-03-20 02:12:00,43.0,35.0,-100.00,East,80,10.0,17.0,74,-99.99,,,0.00,0.000000,,2013-03-20 09:12:00,
2013-03-20 03:12:00,43.0,35.0,-100.00,East,82,11.0,21.0,72,-99.99,,,0.00,0.000000,,2013-03-20 10:12:00,
2013-03-20 04:12:00,42.0,38.0,-100.00,ENE,76,15.0,22.0,84,-99.99,,,0.00,0.000000,,2013-03-20 11:12:00,
2013-03-20 05:12:00,44.0,38.0,-100.00,ENE,68,15.0,23.0,81,-99.99,,,0.00,0.000000,,2013-03-20 12:12:00,
2013-03-20 06:12:00,45.0,38.0,-100.00,ENE,77,11.0,17.0,78,-99.99,,,0.00,0.000000,,2013-03-20 13:12:00,
2013-03-20 07:12:00,44.0,39.0,-100.00,ENE,78,10.0,17.0,80,-99.99,,,0.00,0.000000,,2013-03-20 14:12:00,
2013-03-20 08:12:00,45.0,39.0,-100.00,ENE,77,11.0,16.0,80,-99.99,,,0.00,1.630000,,2013-03-20 15:12:00,
2013-03-20 09:12:00,44.0,40.0,-100.00,East,79,12.0,17.0,85,-99.99,,,0.00,12.780000,,2013-03-20 16:12:00,
2013-03-20 10:12:00,47.0,40.0,-100.00,ENE,72,12.0,19.0,78,-99.99,,,0.00,96.809998,,2013-03-20 17:12:00,
2013-03-20 12:12:00,51.0,41.0,-100.00,SSE,167,12.0,28.0,70,-99.99,,,0.00,343.200012,,2013-03-20 19:12:00,
2013-03-20 13:12:00,52.0,41.0,-100.00,SW,225,7.0,19.0,67,-99.99,,,-99.99,246.500000,,2013-03-20 20:12:00,
2013-03-20 14:12:00,50.0,40.0,-100.00,WSW,253,11.0,29.0,68,-99.99,,,0.00,296.480011,,2013-03-20 21:12:00,
2013-03-20 15:12:00,54.0,39.0,-100.00,WSW,244,9.0,17.0,57,-99.99,,,0.00,707.549988,,2013-03-20 22:12:00,
2013-03-20 16:12:00,55.0,33.0,-100.00,West,264,15.0,28.0,43,-99.99,,,0.00,476.040009,,2013-03-20 23:12:00,
2013-03-20 17:12:00,53.0,29.0,-100.00,West,270,15.0,27.0,38,-99.99,,,0.00,496.260010,,2013-03-21 00:12:00,
2013-03-20 18:12:00,53.0,29.0,-100.00,West,267,13.0,25.0,38,-99.99,,,0.00,332.970001,,2013-03-21 01:12:00,
2013-03-20 19:12:00,52.0,27.0,-100.00,WSW,257,14.0,28.0,38,-99.99,,,0.00,130.630005,,2013-03-21 02:12:00,
2013-03-20 20:12:00,48.0,30.0,-100.00,WSW,251,14.0,28.0,48,-99.99,,,0.00,3.250000,,2013-03-21 03:12:00,
2013-03-20 21:13:00,46.0,30.0,-100.00,West,261,17.0,30.0,52,-99.99,,,0.00,0.000000,,2013-03-21 04:13:00,
2013-03-20 22:12:00,43.0,30.0,-100.00,West,259,12.0,21.0,59,-99.99,,,0.00,0.000000,,2013-03-21 05:12:00,
2013-03-20 23:12:00,44.0,26.0,-100.00,West,266,13.0,23.0,49,-99.99,,,0.00,0.000000,,2013-03-21 06:12:00,